Printer-friendly version

IAU Minor Planet Center

Minor Planet Center

MPEC 2002-K03 : 2002 JS100

The following Minor Planet Electronic Circular may be linked-to from your own Web pages, but must not otherwise be redistributed electronically.


Read MPEC 2002-K02 Read MPEC 2002-K04


M.P.E.C. 2002-K03                                Issued 2002 May 16, 15:00 UT

     The Minor Planet Electronic Circulars contain information on unusual
         minor planets and routine data on comets.  They are published
   on behalf of Commission 20 of the International Astronomical Union by the
          Minor Planet Center, Smithsonian Astrophysical Observatory,
                          Cambridge, MA 02138, U.S.A.

             Prepared using the Tamkin Foundation Computer Network

                              MPC@CFA.HARVARD.EDU
          URL http://cfa-www.harvard.edu/iau/mpc.html  ISSN 1523-6714

                                  2002 JS100

Observations:
     K02JA0S  C2002 05 11.36282 15 56 38.65 +06 00 58.3          19.5        644
     K02JA0S  C2002 05 11.38370 15 56 37.33 +06 01 10.6          19.4        644
     K02JA0S  C2002 05 11.40805 15 56 35.79 +06 01 24.6          19.1        644
     K02JA0S* C2002 05 15.29682 15 52 29.95 +06 37 29.6          18.8        704
     K02JA0S  C2002 05 15.31174 15 52 28.82 +06 37 37.9          18.9        704
     K02JA0S  C2002 05 15.32670 15 52 27.85 +06 37 44.3          18.9        704
     K02JA0S  C2002 05 15.34165 15 52 26.75 +06 37 53.3          18.9        704
     K02JA0S  C2002 05 15.35668 15 52 25.78 +06 38 01.0          18.8        704
     K02JA0S  C2002 05 15.94140 15 51 47.35 +06 43 05.1                      246
     K02JA0S  C2002 05 15.94238 15 51 47.29 +06 43 05.4                      246
     K02JA0S  C2002 05 15.94464 15 51 47.13 +06 43 06.9                      246
     K02JA0S  C2002 05 15.94549 15 51 47.07 +06 43 07.2                      246

Observer details:
246 Klet Observatory-KLENOT.  Observers M. Tichy, M. Kocer.  1.06-m KLENOT
    telescope + CCD.
644 Palomar Mountain/NEAT.  Observers E. F. Helin, S. Pravdo, K. Lawrence,
    M. Hicks, R. Thicksten.  1.2-m Schmidt + CCD.
704 Lincoln Laboratory ETS, New Mexico.  Observers M. Blythe, F. Shelly,
    M. Bezpalko, R. Huber, L. Manguso, S. Adams, J. Piscitelli.  Measurers
    J. Stuart, R. Sayer, J. B. Evans, H. Viggh.  1.0-m f/2.15 reflector + CCD.

Orbital elements:
2002 JS100
Epoch 2002 May 6.0 TT = JDT 2452400.5                   MPC
M 313.06349              (2000.0)            P               Q
n   0.26358214     Peri.  191.40014     +0.91247085     +0.38654018
a   2.4091216      Node   144.89156     -0.35465789     +0.91069048
e   0.4950141      Incl.   13.48388     -0.20399688     +0.14570360
P   3.74           H   16.0           G   0.15
From 12 observations 2002 May 11-15.

Ephemeris:
2002 JS100               a,e,i = 2.41, 0.50, 13                  q = 1.2166
Date    TT    R. A. (2000) Decl.     Delta      r     Elong.  Phase     V
2002 05 06    16 01.70   +05 06.3    1.138    2.085   152.3    13.0    18.6
2002 05 16    15 51.72   +06 43.7    1.067    2.024   153.7    12.8    18.4
2002 05 26    15 40.00   +07 54.5    1.017    1.962   150.1    14.9    18.3
2002 06 05    15 28.01   +08 28.2    0.988    1.899   142.9    18.8    18.3
2002 06 15    15 17.37   +08 18.7    0.977    1.836   134.3    23.3    18.4
2002 06 25    15 09.55   +07 26.3    0.979    1.773   125.4    27.9    18.4
2002 07 05    15 05.43   +05 56.2    0.990    1.710   116.9    32.0    18.5
2002 07 15    15 05.45   +03 54.8    1.007    1.648   109.0    35.7    18.6
2002 07 25    15 09.68   +01 29.0    1.026    1.587   102.0    38.8    18.6
2002 08 04    15 17.97   -01 15.3    1.045    1.527    95.7    41.4    18.6
2002 08 14    15 30.17   -04 13.5    1.062    1.470    90.2    43.6    18.6
2002 08 24    15 46.15   -07 21.1    1.076    1.417    85.4    45.4    18.6
2002 09 03    16 05.80   -10 33.5    1.087    1.367    81.3    46.8    18.6
2002 09 13    16 29.17   -13 46.0    1.096    1.323    77.9    48.0    18.6
2002 09 23    16 56.28   -16 52.3    1.103    1.285    75.0    49.0    18.6
2002 10 03    17 27.13   -19 44.7    1.111    1.255    72.7    49.6    18.6
2002 10 13    18 01.69   -22 14.1    1.119    1.233    70.9    49.9    18.6
2002 10 23    18 39.63   -24 10.4    1.132    1.220    69.7    49.9    18.6
2002 11 02    19 20.33   -25 23.9    1.150    1.217    68.8    49.5    18.6
2002 11 12    20 02.85   -25 47.2    1.175    1.224    68.2    48.7    18.6
2002 11 22    20 45.94   -25 17.3    1.210    1.240    67.8    47.5    18.7
2002 12 02    21 28.39   -23 56.3    1.255    1.265    67.5    46.1    18.8
2002 12 12    22 09.23   -21 51.1    1.312    1.299    67.1    44.3    18.9
2002 12 22    22 47.80   -19 12.1    1.381    1.339    66.5    42.4    19.0
2003 01 01    23 23.88   -16 10.4    1.462    1.386    65.7    40.3    19.1
2003 01 11    23 57.54   -12 56.2    1.553    1.437    64.5    38.2    19.3
2003 01 21    00 28.97   -09 38.4    1.655    1.492    62.9    36.0    19.4
2003 01 31    00 58.47   -06 23.7    1.767    1.550    61.0    33.8    19.6
2003 02 10    01 26.36   -03 16.9    1.885    1.610    58.6    31.6    19.8
2003 02 20    01 52.91   -00 21.3    2.010    1.671    56.0    29.3    19.9

Timothy B. Spahr             (C) Copyright 2002 MPC           M.P.E.C. 2002-K03

Read MPEC 2002-K02 Read MPEC 2002-K04


Our Web policy. Index to the CBAT/MPC/ICQ pages.


Valid HTML 4.01!